Time,TemperatureF,DewpointF,PressureIn,WindDirection,WindDirectionDegrees,WindSpeedMPH,WindSpeedGustMPH,Humidity,HourlyPrecipIn,Conditions,Clouds,dailyrainin,SoftwareType,DateUTC
2013-05-16 00:03:00,73.0,-99.9,30.13,ESE,107,6.0,10.0,-999,-99.99,,,-99.99,,2013-05-16 04:03:00,
2013-05-16 00:12:00,73.0,-99.9,30.13,ESE,111,6.0,9.0,-999,-99.99,,,-99.99,,2013-05-16 04:12:00,
2013-05-16 00:23:00,73.0,-99.9,30.13,ESE,122,6.0,9.0,-999,-99.99,,,-99.99,,2013-05-16 04:23:00,
2013-05-16 00:33:00,73.0,-99.9,30.13,ESE,120,5.0,10.0,-999,-99.99,,,-99.99,,2013-05-16 04:33:00,
2013-05-16 00:43:00,73.0,-99.9,30.12,ESE,118,6.0,9.0,-999,-99.99,,,-99.99,,2013-05-16 04:43:00,
2013-05-16 00:53:00,72.0,-99.9,30.12,ESE,117,7.0,11.0,-999,-99.99,,,-99.99,,2013-05-16 04:53:00,
2013-05-16 01:03:00,72.0,-99.9,30.11,ESE,118,6.0,9.0,-999,-99.99,,,-99.99,,2013-05-16 05:03:00,
2013-05-16 01:12:00,72.0,-99.9,30.11,ESE,117,6.0,10.0,-999,-99.99,,,-99.99,,2013-05-16 05:12:00,
2013-05-16 01:22:00,72.0,-99.9,30.11,ESE,117,5.0,8.0,-999,-99.99,,,-99.99,,2013-05-16 05:22:00,
2013-05-16 01:32:00,72.0,-99.9,30.11,ESE,115,7.0,12.0,-999,-99.99,,,-99.99,,2013-05-16 05:32:00,
2013-05-16 01:42:00,71.0,-99.9,30.10,ESE,110,6.0,9.0,-999,-99.99,,,-99.99,,2013-05-16 05:42:00,
2013-05-16 01:52:00,71.0,-99.9,30.10,ESE,105,6.0,11.0,-999,-99.99,,,-99.99,,2013-05-16 05:52:00,
2013-05-16 02:02:00,71.0,-99.9,30.10,ESE,114,8.0,11.0,-999,-99.99,,,-99.99,,2013-05-16 06:02:00,
2013-05-16 02:13:00,71.0,-99.9,30.09,ESE,116,6.0,11.0,-999,-99.99,,,-99.99,,2013-05-16 06:13:00,
2013-05-16 02:23:00,71.0,-99.9,30.09,ESE,123,7.0,9.0,-999,-99.99,,,-99.99,,2013-05-16 06:23:00,
2013-05-16 02:33:00,70.0,-99.9,30.09,ESE,108,5.0,9.0,-999,-99.99,,,-99.99,,2013-05-16 06:33:00,
2013-05-16 02:43:00,70.0,-99.9,30.08,ESE,119,5.0,9.0,-999,-99.99,,,-99.99,,2013-05-16 06:43:00,
2013-05-16 02:53:00,70.0,-99.9,30.08,ESE,119,6.0,9.0,-999,-99.99,,,-99.99,,2013-05-16 06:53:00,
2013-05-16 03:02:00,70.0,-99.9,30.08,ESE,112,6.0,9.0,-999,-99.99,,,-99.99,,2013-05-16 07:02:00,
2013-05-16 03:12:00,70.0,-99.9,30.08,ESE,103,4.0,7.0,-999,-99.99,,,-99.99,,2013-05-16 07:12:00,
2013-05-16 03:24:00,70.0,-99.9,30.08,ESE,114,6.0,8.0,-999,-99.99,,,-99.99,,2013-05-16 07:24:00,
2013-05-16 03:34:00,70.0,-99.9,30.07,ESE,113,6.0,8.0,-999,-99.99,,,-99.99,,2013-05-16 07:34:00,
2013-05-16 03:44:00,69.0,-99.9,30.08,ESE,111,4.0,6.0,-999,-99.99,,,-99.99,,2013-05-16 07:44:00,
2013-05-16 03:54:00,69.0,-99.9,30.08,ESE,109,5.0,8.0,-999,-99.99,,,-99.99,,2013-05-16 07:54:00,
2013-05-16 04:03:00,69.0,-99.9,30.07,East,88,2.0,4.0,-999,-99.99,,,-99.99,,2013-05-16 08:03:00,
2013-05-16 04:13:00,69.0,-99.9,30.07,East,94,2.0,4.0,-999,-99.99,,,-99.99,,2013-05-16 08:13:00,
2013-05-16 04:24:00,69.0,-99.9,30.07,East,92,4.0,7.0,-999,-99.99,,,-99.99,,2013-05-16 08:24:00,
2013-05-16 04:35:00,69.0,-99.9,30.07,ENE,74,4.0,6.0,-999,-99.99,,,-99.99,,2013-05-16 08:35:00,
2013-05-16 04:45:00,69.0,-99.9,30.06,East,86,4.0,7.0,-999,-99.99,,,-99.99,,2013-05-16 08:45:00,
2013-05-16 04:55:00,69.0,-99.9,30.06,East,93,5.0,8.0,-999,-99.99,,,-99.99,,2013-05-16 08:55:00,
2013-05-16 05:04:00,69.0,-99.9,30.06,East,92,5.0,8.0,-999,-99.99,,,-99.99,,2013-05-16 09:04:00,
2013-05-16 05:14:00,69.0,-99.9,30.06,ESE,106,4.0,6.0,-999,-99.99,,,-99.99,,2013-05-16 09:14:00,
2013-05-16 05:24:00,69.0,-99.9,30.06,ESE,105,4.0,8.0,-999,-99.99,,,-99.99,,2013-05-16 09:24:00,
2013-05-16 05:35:00,69.0,-99.9,30.06,ESE,108,4.0,7.0,-999,-99.99,,,-99.99,,2013-05-16 09:35:00,
2013-05-16 05:45:00,68.0,-99.9,30.06,ESE,102,4.0,7.0,-999,-99.99,,,-99.99,,2013-05-16 09:45:00,
2013-05-16 05:55:00,68.0,-99.9,30.06,ESE,105,3.0,6.0,-999,-99.99,,,-99.99,,2013-05-16 09:55:00,
2013-05-16 06:05:00,68.0,-99.9,30.06,East,100,4.0,6.0,-999,-99.99,,,-99.99,,2013-05-16 10:05:00,
2013-05-16 06:15:00,68.0,-99.9,30.07,ESE,109,2.0,5.0,-999,-99.99,,,-99.99,,2013-05-16 10:15:00,
2013-05-16 06:24:00,68.0,-99.9,30.07,East,98,2.0,5.0,-999,-99.99,,,-99.99,,2013-05-16 10:24:00,
2013-05-16 06:36:00,68.0,-99.9,30.07,East,98,4.0,6.0,-999,-99.99,,,-99.99,,2013-05-16 10:36:00,
2013-05-16 06:45:00,68.0,-99.9,30.08,East,87,2.0,5.0,-999,-99.99,,,-99.99,,2013-05-16 10:45:00,
2013-05-16 06:57:00,67.0,-99.9,30.08,East,82,4.0,6.0,-999,-99.99,,,-99.99,,2013-05-16 10:57:00,
2013-05-16 07:05:00,67.0,-99.9,30.08,East,86,4.0,8.0,-999,-99.99,,,-99.99,,2013-05-16 11:05:00,
2013-05-16 07:15:00,67.0,-99.9,30.08,East,91,4.0,7.0,-999,-99.99,,,-99.99,,2013-05-16 11:15:00,
2013-05-16 07:25:00,67.0,-99.9,30.09,East,81,4.0,7.0,-999,-99.99,,,-99.99,,2013-05-16 11:25:00,
2013-05-16 07:35:00,67.0,-99.9,30.09,East,94,4.0,8.0,-999,-99.99,,,-99.99,,2013-05-16 11:35:00,
2013-05-16 07:46:00,68.0,-99.9,30.09,East,84,4.0,7.0,-999,-99.99,,,-99.99,,2013-05-16 11:46:00,
2013-05-16 07:57:00,68.0,-99.9,30.10,East,86,4.0,9.0,-999,-99.99,,,-99.99,,2013-05-16 11:57:00,
2013-05-16 08:06:00,68.0,-99.9,30.10,East,94,5.0,8.0,-999,-99.99,,,-99.99,,2013-05-16 12:06:00,
2013-05-16 08:14:00,69.0,-99.9,30.10,East,91,5.0,8.0,-999,-99.99,,,-99.99,,2013-05-16 12:14:00,
2013-05-16 08:23:00,69.0,-99.9,30.10,East,85,6.0,10.0,-999,-99.99,,,-99.99,,2013-05-16 12:23:00,
2013-05-16 08:35:00,70.0,-99.9,30.11,ESE,103,6.0,9.0,-999,-99.99,,,-99.99,,2013-05-16 12:35:00,
2013-05-16 08:45:00,71.0,-99.9,30.11,East,97,6.0,8.0,-999,-99.99,,,-99.99,,2013-05-16 12:45:00,
2013-05-16 08:53:00,72.0,-99.9,30.11,ESE,103,5.0,11.0,-999,-99.99,,,-99.99,,2013-05-16 12:53:00,
2013-05-16 09:05:00,72.0,-99.9,30.11,ESE,114,5.0,10.0,-999,-99.99,,,-99.99,,2013-05-16 13:05:00,
2013-05-16 09:12:00,73.0,-99.9,30.11,SE,131,5.0,7.0,-999,-99.99,,,-99.99,,2013-05-16 13:12:00,
2013-05-16 09:27:00,74.0,-99.9,30.11,ESE,111,4.0,9.0,-999,-99.99,,,-99.99,,2013-05-16 13:27:00,
2013-05-16 09:35:00,74.0,-99.9,30.12,SE,130,9.0,11.0,-999,-99.99,,,-99.99,,2013-05-16 13:35:00,
2013-05-16 09:44:00,75.0,-99.9,30.12,ESE,116,6.0,11.0,-999,-99.99,,,-99.99,,2013-05-16 13:44:00,
2013-05-16 09:55:00,75.0,-99.9,30.12,ESE,123,5.0,9.0,-999,-99.99,,,-99.99,,2013-05-16 13:55:00,
2013-05-16 10:05:00,76.0,-99.9,30.12,SE,134,6.0,10.0,-999,-99.99,,,-99.99,,2013-05-16 14:05:00,
2013-05-16 10:16:00,76.0,-99.9,30.13,SE,132,6.0,10.0,-999,-99.99,,,-99.99,,2013-05-16 14:16:00,
2013-05-16 10:23:00,77.0,-99.9,30.13,East,83,6.0,9.0,-999,-99.99,,,-99.99,,2013-05-16 14:23:00,
2013-05-16 10:37:00,77.0,-99.9,30.13,SSE,149,5.0,10.0,-999,-99.99,,,-99.99,,2013-05-16 14:37:00,
2013-05-16 10:47:00,77.0,-99.9,30.13,ESE,112,4.0,9.0,-999,-99.99,,,-99.99,,2013-05-16 14:47:00,
2013-05-16 10:56:00,77.0,-99.9,30.13,SE,128,4.0,9.0,-999,-99.99,,,-99.99,,2013-05-16 14:56:00,
2013-05-16 11:09:00,78.0,-99.9,30.13,ESE,108,4.0,6.0,-999,-99.99,,,-99.99,,2013-05-16 15:09:00,
2013-05-16 11:17:00,78.0,-99.9,30.13,ENE,77,3.0,6.0,-999,-99.99,,,-99.99,,2013-05-16 15:17:00,
2013-05-16 11:28:00,78.0,-99.9,30.13,East,96,4.0,6.0,-999,-99.99,,,-99.99,,2013-05-16 15:28:00,
2013-05-16 11:41:00,79.0,-99.9,30.13,ENE,69,4.0,8.0,-999,-99.99,,,-99.99,,2013-05-16 15:41:00,
2013-05-16 11:50:00,79.0,-99.9,30.13,SE,139,6.0,10.0,-999,-99.99,,,-99.99,,2013-05-16 15:50:00,
2013-05-16 12:01:00,79.0,-99.9,30.13,North,6,3.0,7.0,-999,-99.99,,,-99.99,,2013-05-16 16:01:00,
2013-05-16 12:09:00,79.0,-99.9,30.13,North,354,2.0,3.0,-999,-99.99,,,-99.99,,2013-05-16 16:09:00,
2013-05-16 12:20:00,81.0,-99.9,30.13,West,260,3.0,5.0,-999,-99.99,,,-99.99,,2013-05-16 16:20:00,
2013-05-16 12:31:00,80.0,-99.9,30.13,WSW,248,4.0,5.0,-999,-99.99,,,-99.99,,2013-05-16 16:31:00,
2013-05-16 12:40:00,78.0,-99.9,30.13,WNW,301,7.0,8.0,-999,-99.99,,,-99.99,,2013-05-16 16:40:00,
2013-05-16 12:51:00,79.0,-99.9,30.13,WSW,253,5.0,6.0,-999,-99.99,,,-99.99,,2013-05-16 16:51:00,
2013-05-16 13:01:00,78.0,-99.9,30.13,WSW,249,6.0,8.0,-999,-99.99,,,-99.99,,2013-05-16 17:01:00,
2013-05-16 13:11:00,80.0,-99.9,30.13,West,271,5.0,8.0,-999,-99.99,,,-99.99,,2013-05-16 17:11:00,
2013-05-16 13:20:00,80.0,-99.9,30.12,West,280,6.0,7.0,-999,-99.99,,,-99.99,,2013-05-16 17:20:00,
2013-05-16 13:31:00,80.0,-99.9,30.12,West,263,5.0,9.0,-999,-99.99,,,-99.99,,2013-05-16 17:31:00,
2013-05-16 13:40:00,79.0,-99.9,30.11,West,276,6.0,9.0,-999,-99.99,,,-99.99,,2013-05-16 17:40:00,
2013-05-16 13:51:00,-999.0,-99.9,30.11,West,267,6.0,9.0,-999,-99.99,,,-99.99,,2013-05-16 17:51:00,
2013-05-16 14:00:00,79.0,-99.9,30.11,WNW,285,7.0,9.0,-999,-99.99,,,-99.99,,2013-05-16 18:00:00,
2013-05-16 14:10:00,79.0,-99.9,30.11,West,275,7.0,10.0,-999,-99.99,,,-99.99,,2013-05-16 18:10:00,
2013-05-16 14:20:00,78.0,-99.9,30.11,WNW,302,8.0,9.0,-999,-99.99,,,-99.99,,2013-05-16 18:20:00,
2013-05-16 14:30:00,-999.0,-99.9,30.11,WNW,302,9.0,10.0,-999,-99.99,,,-99.99,,2013-05-16 18:30:00,
2013-05-16 14:41:00,-999.0,-99.9,30.10,WNW,295,8.0,10.0,-999,-99.99,,,-99.99,,2013-05-16 18:41:00,
2013-05-16 14:51:00,-999.0,-99.9,30.10,NW,304,8.0,10.0,-999,-99.99,,,-99.99,,2013-05-16 18:51:00,
2013-05-16 15:01:00,-999.0,-99.9,30.09,WNW,299,9.0,10.0,-999,-99.99,,,-99.99,,2013-05-16 19:01:00,
2013-05-16 15:11:00,78.0,-99.9,30.09,WNW,298,9.0,10.0,-999,-99.99,,,-99.99,,2013-05-16 19:11:00,
2013-05-16 15:21:00,78.0,-99.9,30.09,WNW,288,9.0,11.0,-999,-99.99,,,-99.99,,2013-05-16 19:21:00,
2013-05-16 15:30:00,78.0,-99.9,30.08,WNW,288,9.0,11.0,-999,-99.99,,,-99.99,,2013-05-16 19:30:00,
2013-05-16 15:40:00,78.0,-99.9,30.08,WNW,296,8.0,10.0,-999,-99.99,,,-99.99,,2013-05-16 19:40:00,
2013-05-16 15:51:00,-999.0,-99.9,30.07,WNW,294,10.0,11.0,-999,-99.99,,,-99.99,,2013-05-16 19:51:00,
2013-05-16 16:01:00,79.0,-99.9,30.07,WNW,282,9.0,10.0,-999,-99.99,,,-99.99,,2013-05-16 20:01:00,
2013-05-16 16:10:00,-999.0,-99.9,30.06,West,269,9.0,11.0,-999,-99.99,,,-99.99,,2013-05-16 20:10:00,
2013-05-16 16:20:00,80.0,-99.9,30.06,West,279,9.0,10.0,-999,-99.99,,,-99.99,,2013-05-16 20:20:00,
2013-05-16 16:30:00,80.0,-99.9,30.06,WNW,286,9.0,11.0,-999,-99.99,,,-99.99,,2013-05-16 20:30:00,
2013-05-16 16:41:00,-999.0,-99.9,30.06,West,281,7.0,10.0,-999,-99.99,,,-99.99,,2013-05-16 20:41:00,
2013-05-16 16:51:00,81.0,-99.9,30.06,West,272,7.0,11.0,-999,-99.99,,,-99.99,,2013-05-16 20:51:00,
2013-05-16 17:00:00,80.0,-99.9,30.06,WSW,255,10.0,12.0,-999,-99.99,,,-99.99,,2013-05-16 21:00:00,
2013-05-16 17:10:00,79.0,-99.9,30.05,WSW,250,11.0,12.0,-999,-99.99,,,-99.99,,2013-05-16 21:10:00,
2013-05-16 17:20:00,79.0,-99.9,30.05,WSW,243,12.0,14.0,-999,-99.99,,,-99.99,,2013-05-16 21:20:00,
2013-05-16 17:29:00,79.0,-99.9,30.05,WSW,243,12.0,14.0,-999,-99.99,,,-99.99,,2013-05-16 21:29:00,
2013-05-16 17:39:00,79.0,-99.9,30.05,WSW,244,12.0,14.0,-999,-99.99,,,-99.99,,2013-05-16 21:39:00,
2013-05-16 17:50:00,78.0,-99.9,30.05,WSW,246,11.0,12.0,-999,-99.99,,,-99.99,,2013-05-16 21:50:00,
2013-05-16 18:01:00,-999.0,-99.9,30.05,WSW,242,11.0,12.0,-999,-99.99,,,-99.99,,2013-05-16 22:01:00,
2013-05-16 18:08:00,79.0,-99.9,30.05,WSW,247,9.0,12.0,-999,-99.99,,,-99.99,,2013-05-16 22:08:00,
2013-05-16 18:21:00,78.0,-99.9,30.04,WSW,243,10.0,11.0,-999,-99.99,,,-99.99,,2013-05-16 22:21:00,
2013-05-16 18:31:00,79.0,-99.9,30.05,WSW,244,10.0,11.0,-999,-99.99,,,-99.99,,2013-05-16 22:31:00,
2013-05-16 18:40:00,78.0,-99.9,30.04,WSW,247,8.0,10.0,-999,-99.99,,,-99.99,,2013-05-16 22:40:00,
2013-05-16 18:51:00,78.0,-99.9,30.04,WSW,254,7.0,9.0,-999,-99.99,,,-99.99,,2013-05-16 22:51:00,
2013-05-16 19:01:00,78.0,-99.9,30.04,WSW,253,7.0,8.0,-999,-99.99,,,-99.99,,2013-05-16 23:01:00,
2013-05-16 19:07:00,79.0,-99.9,30.04,West,274,5.0,8.0,-999,-99.99,,,-99.99,,2013-05-16 23:07:00,
2013-05-16 19:16:00,79.0,-99.9,30.04,WSW,254,5.0,7.0,-999,-99.99,,,-99.99,,2013-05-16 23:16:00,
2013-05-16 19:24:00,79.0,-99.9,30.04,West,272,4.0,6.0,-999,-99.99,,,-99.99,,2013-05-16 23:24:00,
2013-05-16 19:35:00,79.0,-99.9,30.03,WNW,282,5.0,6.0,-999,-99.99,,,-99.99,,2013-05-16 23:35:00,
2013-05-16 19:45:00,79.0,-99.9,30.04,West,277,4.0,6.0,-999,-99.99,,,-99.99,,2013-05-16 23:45:00,
2013-05-16 19:54:00,78.0,-99.9,30.04,WNW,292,5.0,6.0,-999,-99.99,,,-99.99,,2013-05-16 23:54:00,
2013-05-16 20:03:00,79.0,-99.9,30.04,WNW,282,4.0,5.0,-999,-99.99,,,-99.99,,2013-05-17 00:03:00,
2013-05-16 20:13:00,78.0,-99.9,30.04,WNW,290,4.0,5.0,-999,-99.99,,,-99.99,,2013-05-17 00:13:00,
2013-05-16 20:22:00,78.0,-99.9,30.04,NW,306,4.0,5.0,-999,-99.99,,,-99.99,,2013-05-17 00:22:00,
2013-05-16 20:33:00,78.0,-99.9,30.04,NW,318,4.0,5.0,-999,-99.99,,,-99.99,,2013-05-17 00:33:00,
2013-05-16 20:44:00,78.0,-99.9,30.04,NW,316,4.0,5.0,-999,-99.99,,,-99.99,,2013-05-17 00:44:00,
2013-05-16 20:53:00,78.0,-99.9,30.04,NW,324,3.0,4.0,-999,-99.99,,,-99.99,,2013-05-17 00:53:00,
2013-05-16 21:03:00,78.0,-99.9,30.04,NW,313,4.0,4.0,-999,-99.99,,,-99.99,,2013-05-17 01:03:00,
2013-05-16 21:12:00,78.0,-99.9,30.04,NNW,342,3.0,4.0,-999,-99.99,,,-99.99,,2013-05-17 01:12:00,
2013-05-16 21:23:00,77.0,-99.9,30.04,North,10,2.0,4.0,-999,-99.99,,,-99.99,,2013-05-17 01:23:00,
2013-05-16 21:32:00,77.0,-99.9,30.04,NNE,20,3.0,4.0,-999,-99.99,,,-99.99,,2013-05-17 01:32:00,
2013-05-16 21:44:00,77.0,-99.9,30.05,East,84,2.0,2.0,-999,-99.99,,,-99.99,,2013-05-17 01:44:00,
2013-05-16 21:53:00,77.0,-99.9,30.05,SSE,157,4.0,4.0,-999,-99.99,,,-99.99,,2013-05-17 01:53:00,
2013-05-16 22:02:00,77.0,-99.9,30.05,SSE,162,4.0,5.0,-999,-99.99,,,-99.99,,2013-05-17 02:02:00,
2013-05-16 22:12:00,76.0,-99.9,30.06,SSE,150,3.0,6.0,-999,-99.99,,,-99.99,,2013-05-17 02:12:00,
2013-05-16 22:22:00,76.0,-99.9,30.06,SE,142,3.0,4.0,-999,-99.99,,,-99.99,,2013-05-17 02:22:00,
2013-05-16 22:33:00,76.0,-99.9,30.06,ESE,117,3.0,4.0,-999,-99.99,,,-99.99,,2013-05-17 02:33:00,
2013-05-16 22:42:00,76.0,-99.9,30.07,ESE,110,3.0,3.0,-999,-99.99,,,-99.99,,2013-05-17 02:42:00,
2013-05-16 22:53:00,76.0,-99.9,30.07,ESE,112,3.0,3.0,-999,-99.99,,,-99.99,,2013-05-17 02:53:00,
2013-05-16 23:02:00,76.0,-99.9,30.07,ESE,114,2.0,3.0,-999,-99.99,,,-99.99,,2013-05-17 03:02:00,
2013-05-16 23:11:00,77.0,-99.9,30.07,SE,124,2.0,3.0,-999,-99.99,,,-99.99,,2013-05-17 03:11:00,
2013-05-16 23:23:00,77.0,-99.9,30.07,ESE,118,3.0,3.0,-999,-99.99,,,-99.99,,2013-05-17 03:23:00,
2013-05-16 23:34:00,77.0,-99.9,30.08,ESE,113,5.0,6.0,-999,-99.99,,,-99.99,,2013-05-17 03:34:00,
2013-05-16 23:43:00,76.0,-99.9,30.09,SE,133,6.0,12.0,-999,-99.99,,,-99.99,,2013-05-17 03:43:00,
2013-05-16 23:53:00,76.0,-99.9,30.09,ESE,113,6.0,11.0,-999,-99.99,,,-99.99,,2013-05-17 03:53:00,